Weather in Konduy

Russia / Zabaykalsky Krai     50°33′18″N   117°28′19″E
temp.,
°C
wind,
m/s
gust,
m/s
humid.,
%
clouds,
%
prec.,
mm/h
press.,
hPa
HPBL,
m
2 december, thu
thu200:00−5wnw91785100 0.1 1002878
03:00−6nw9167035 0.9 1002951
06:00−10nw917630 0.0 1005807
09:00−12nw613650 0.0 1008430
12:00−11nw814602 0.0 10091063
15:00−10nnw814672 0.0 1012780
18:00−14nw37730 0.0 1016141
21:00−18w22855 0.0 101827
3 december, fri
fri300:00−18wnw33865 0.0 101930
03:00−19wnw22925 0.0 101919
06:00−20wnw22935 0.0 101913
09:00−20nw22925 0.0 102112
12:00−13w22703 0.0 102096
15:00−12wsw12731 0.0 102043
18:00−18wnw22865 0.0 102410
21:00−18wnw11875 0.0 102610
4 december, sat
sat400:00−18w118799 0.0 102610
03:00−16wsw119294 0.0 102414
06:00−16w009891 0.1 10239
09:00−16w119988 0.1 102210
12:00−10sw22875 0.0 101967
15:00−8sw22865 0.0 101733
18:00−13wnw22885 0.0 10199
21:00−14w1183100 0.0 101910
5 december, sun
sun500:00−13wnw118399 0.0 10179
03:00−14w1183100 0.0 10169
06:00−13w1186100 0.0 101511
09:00−12wnw2286100 0.0 101513
12:00−6w2277100 0.0 101468
15:00−5wnw3481100 0.0 1014132
18:00−7nw478172 0.0 1018137
21:00−8wnw59773 0.0 1020183
6 december, mon
mon600:00−11wnw48782 0.0 1023147
03:00−12wnw48845 0.0 1025175
06:00−14w35885 0.0 102779
09:00−15w23915 0.0 102955
12:00−9wsw310805 0.0 1027471
15:00−7wsw37792 0.0 1024217
18:00−13wsw249338 0.0 102646
21:00−13w229399 0.0 102625